#timestamp,LO_Frequency 
1431606875.5,54793722.3
1431606935.6,4918273.3
1431606955.5,9999969.7
1431606975.4,286046997.7
1431606995.3,286046995.8
1431607015.3,286046999.8
1431607035.2,286047003.0
1431607055.1,286046995.5
1431607075.0,286047004.5
1431607076.0,286047004.5
1431607095.9,286047008.7
1431607115.8,286047001.1
1431607135.8,286046987.3
1431607155.7,286046999.8
1431607175.6,286047008.6
1431607195.6,286046991.5
1431607215.5,286046998.8
1431607235.4,286047006.0
1431607255.3,286046993.3
1431607275.3,286046994.7
1431607295.2,286046995.7
1431607315.1,286046993.3
1431607335.1,286047005.1
1431607336.0,286047005.1
1431607355.0,286046988.8
1431607355.9,286046988.8
1431607375.9,286047015.0
1431607395.8,286047008.8
1431607415.7,286047000.1
1431607435.6,286047001.0
1431607455.6,286046993.6
1431607475.5,286046998.2
1431607495.5,286047000.2
1431607515.4,286047005.7
1431607535.3,286046996.1
1431607555.2,286047002.7
1431607575.2,286046996.7
1431607595.1,286047003.9
1431607615.0,286047000.5
1431607616.0,286047000.5
1431607635.9,286046996.8
1431607655.8,286047001.9
1431607675.7,286046999.7
1431607695.7,286047004.8
1431607715.6,286047010.3
1431607735.5,286046999.1
1431607755.4,286046999.6
1431607775.4,286046997.8
1431607795.3,286046996.3
1431607815.2,286046996.7
1431607835.2,286047004.8
1431607855.1,286046999.5
1431607875.0,286046999.0
1431607875.9,286046999.0
1431607895.9,286046996.6
1431607915.8,286047004.7
1431607935.7,286047002.5
1431607955.6,286047005.6
1431607975.6,286047000.3
1431607995.5,286047002.3
1431608015.4,286046995.3
1431608035.4,286047004.2
1431608055.3,286047000.4
1431608075.2,286047002.4
1431608095.1,286047000.0
1431608115.1,286047000.5
1431608116.0,286047000.5
1431608135.9,286046997.1
1431608155.8,286047002.1
1431608175.8,286047001.4
1431608195.7,286046994.8
1431608215.6,286046999.1
1431608235.5,286046995.2
1431608255.5,286046999.8
1431608275.4,286046999.1
1431608295.3,286046999.8
1431608315.3,286047001.6
1431608335.2,286046999.9
1431608355.1,286047008.3
1431608375.0,286047006.5
1431608375.9,286047006.5
1431608395.9,286046995.1
